Wind_Speed
15 14 13 6 4 4 2 4 1 11 13 24 29 9 3 2 4 4 11 10 11 22 25 25 23 21 19 18 17 17 17 20 20 20 20 18 18 17 17 17 18 19 18 17 16 15 15 16 16
14 12 6 3 4 3 5 3 7 5 19 32 27 28 2 1 2 3 13 11 12 19 22 23 22 21 20 19 17 16 17 18 20 20 21 20 19 19 19 19 19 18 17 17 17 16 16 18 18
13 10 3 4 3 4 3 2 6 11 21 25 19 26 7 7 3 11 10 12 12 17 17 19 20 21 21 20 19 18 17 18 20 21 21 21 21 21 21 20 19 18 17 17 18 20 20 19 19
9 5 4 4 4 5 4 4 7 17 13 22 22 6 9 9 3 4 11 12 11 12 11 15 18 21 22 21 20 18 18 17 19 21 22 22 22 22 22 21 20 19 18 18 19 21 22 22 23
4 3 4 2 5 5 3 6 11 5 15 18 16 14 24 10 4 5 9 10 11 13 14 14 18 20 21 22 22 20 19 18 19 21 22 22 23 23 22 22 20 20 20 20 21 22 24 25 26
4 3 4 2 5 6 5 16 21 8 16 27 14 23 8 15 10 6 11 11 15 16 16 17 18 21 22 23 23 22 21 19 19 21 21 22 23 23 23 21 21 21 21 21 22 23 25 26 27
4 3 3 3 5 9 5 22 13 19 19 13 26 6 12 20 26 20 11 15 17 19 21 22 23 23 25 25 23 23 24 22 21 20 21 22 23 23 23 21 21 22 22 23 23 25 26 29 27
2 4 2 3 0 6 7 23 22 20 7 30 16 9 19 39 35 26 21 14 12 14 21 23 25 25 26 26 24 24 25 25 23 21 22 21 23 23 23 22 21 23 24 25 25 26 28 30 27
2 3 3 4 1 5 20 12 22 21 16 20 26 25 22 19 18 20 17 13 9 15 18 19 23 25 25 26 27 25 26 26 25 24 23 23 24 25 24 23 22 24 24 26 26 29 31 32 28
3 3 5 1 3 5 15 15 15 10 27 21 30 21 20 21 22 21 22 23 11 8 16 19 24 27 25 25 27 28 29 29 29 28 27 27 26 27 26 24 23 24 24 26 28 30 33 34 29
3 3 4 8 15 24 12 11 34 17 12 23 23 29 29 27 28 29 27 24 21 13 9 17 23 26 31 28 25 29 31 33 33 32 31 30 30 30 29 28 26 26 26 28 30 34 37 36 31
4 4 9 13 20 13 8 8 20 30 11 17 18 23 28 31 31 33 32 32 29 18 16 12 18 23 23 33 31 27 31 35 38 37 37 36 35 34 34 33 32 31 31 31 33 38 40 38 32
2 7 15 22 16 11 22 26 16 33 26 25 23 30 34 32 31 30 30 29 30 25 20 19 14 16 17 27 33 36 34 31 37 41 41 41 40 39 38 37 36 35 33 33 35 39 42 40 35
6 12 14 12 15 15 19 19 12 28 25 32 35 35 36 36 36 33 32 32 32 31 26 21 20 16 13 17 27 32 38 39 38 43 45 46 45 43 42 42 41 39 37 35 36 40 44 43 38
9 4 2 10 17 3 1 17 14 21 24 32 35 33 35 38 38 40 39 35 34 32 32 26 20 20 17 13 23 28 29 35 41 45 44 49 48 48 46 45 45 43 40 37 37 39 43 44 41
5 5 5 7 15 10 5 6 15 22 24 28 32 34 33 33 37 39 42 41 38 35 33 32 28 21 19 17 14 24 29 29 40 42 46 49 51 50 49 49 49 47 44 40 39 42 45 46 44
7 2 4 8 12 5 9 3 15 18 21 24 28 31 32 36 41 43 44 44 45 42 38 34 32 30 21 19 19 15 19 34 33 41 45 50 53 53 52 53 52 51 48 45 43 44 46 49 47
3 1 3 4 5 15 15 7 6 16 21 23 25 28 32 35 36 38 41 46 46 47 44 40 38 33 29 22 19 20 16 19 34 40 45 48 51 55 56 57 57 55 53 49 47 46 47 49 50
0 1 2 3 7 8 10 6 5 15 20 24 26 28 31 36 37 38 41 44 46 48 49 47 44 40 34 30 24 20 23 17 22 34 41 47 53 55 56 59 62 60 58 55 53 50 50 51 50
5 1 2 5 8 10 10 9 6 13 16 18 19 24 30 37 43 43 43 46 49 49 50 49 47 45 37 31 29 25 26 25 21 22 36 40 50 55 55 59 61 63 62 58 56 55 54 53 53
4 2 3 6 4 9 9 4 7 9 10 18 24 26 30 33 37 42 45 44 46 49 50 47 45 42 39 34 32 30 26 29 33 24 23 35 40 53 51 55 57 62 64 65 61 60 59 59 56
3 3 8 10 3 3 3 2 5 10 8 18 23 28 31 36 41 42 46 45 45 47 46 47 43 42 38 34 33 29 27 29 31 37 32 32 54 45 17 58 58 57 65 66 65 64 63 61 62
7 12 11 7 4 4 8 4 5 6 8 14 21 26 32 33 37 40 42 45 41 40 44 46 45 42 43 37 31 30 27 28 30 37 31 30 34 50 57 22 54 59 61 65 68 67 67 65 64
12 4 7 5 3 3 5 4 5 3 8 12 22 28 29 31 35 37 39 44 42 40 39 43 46 43 44 43 33 32 26 27 26 27 21 17 23 31 48 48 43 68 64 64 68 69 70 68 66
11 6 4 5 5 3 4 2 6 6 6 10 18 26 26 28 31 35 39 44 42 43 41 41 42 45 43 47 43 37 30 24 21 22 23 23 17 23 30 49 52 46 64 65 66 68 71 70 69
5 3 4 4 1 2 5 1 5 3 13 17 21 25 26 28 31 33 37 39 41 40 42 40 40 40 45 45 47 44 37 27 19 17 16 16 14 19 22 32 51 46 29 64 66 66 71 72 71
6 5 1 4 2 3 3 6 6 2 10 18 24 28 28 27 30 30 33 37 39 40 40 41 42 40 41 46 46 46 44 38 29 18 12 12 9 19 17 29 35 36 52 57 67 65 68 73 73
3 2 2 3 4 3 5 3 4 7 9 12 20 29 26 25 28 28 29 34 37 37 40 42 41 42 42 43 46 47 43 40 38 29 16 9 7 8 11 14 27 31 45 29 37 60 68 67 73
5 5 4 3 2 3 1 5 6 6 7 8 22 21 21 23 26 26 26 30 35 38 40 41 44 43 43 45 43 43 44 40 37 38 29 20 9 6 3 13 21 17 21 36 47 29 60 66 67
4 3 3 4 6 0 3 4 4 8 14 16 16 17 18 18 22 24 23 28 33 36 39 40 40 42 41 42 43 39 36 39 41 38 36 29 22 16 12 6 9 9 21 32 45 29 27 63 66
Wind_Direction
335 329 339 353 36 60 266 263 272 12 345 341 326 289 232 205 181 226 158 158 168 182 174 175 172 177 176 177 175 171 170 170 169 168 166 167 168 166 162 156 156 158 155 154 155 152 149 141 139
344 336 352 29 80 8 282 282 59 15 335 348 349 340 296 209 173 185 169 187 173 178 176 180 178 180 180 179 179 178 173 176 172 171 167 167 169 167 162 160 161 161 159 156 155 156 153 143 140
344 343 16 87 120 183 229 189 3 351 354 359 342 342 339 336 105 159 173 167 161 178 182 185 186 186 188 185 184 184 180 182 180 173 171 169 171 168 164 163 165 163 158 154 151 152 151 151 149
344 349 47 70 269 254 222 23 14 349 352 3 359 351 337 20 283 239 174 174 170 181 184 196 197 195 194 191 190 190 188 187 186 179 175 172 171 169 167 166 168 163 160 156 154 152 151 153 150
355 41 48 8 272 267 313 347 2 359 352 348 0 331 340 352 306 221 212 194 205 211 205 199 204 205 202 199 195 197 196 190 192 187 181 177 174 172 172 168 168 164 162 161 159 158 154 153 153
65 63 59 263 265 287 340 344 348 8 2 347 11 332 1 11 1 278 243 231 220 221 216 212 205 208 209 206 201 201 202 198 197 196 188 184 179 177 175 172 168 167 165 166 165 162 159 158 159
80 71 215 230 275 310 3 357 17 348 342 3 344 296 5 10 5 352 307 258 235 233 225 219 212 208 210 210 206 205 206 206 203 201 197 191 187 184 181 175 171 169 168 169 169 166 165 161 160
55 93 271 249 184 272 17 348 359 16 348 339 360 8 345 344 331 345 358 321 261 252 251 242 225 217 212 212 213 213 212 210 208 207 205 199 194 192 188 180 175 172 172 172 172 169 169 164 160
189 76 243 258 244 298 347 17 348 336 340 3 20 33 18 3 338 334 337 352 334 277 265 258 254 238 222 215 215 216 216 215 212 209 210 205 201 198 195 189 180 177 176 174 176 172 173 167 168
117 156 218 230 304 6 355 358 331 337 40 19 10 19 10 9 17 19 15 18 360 285 277 260 261 258 244 232 221 218 216 217 216 214 209 210 207 204 202 196 187 182 180 179 178 176 176 173 175
24 182 334 344 1 344 344 354 43 34 35 5 360 1 10 11 15 21 20 17 23 16 295 261 261 253 250 245 236 228 225 220 217 217 217 213 211 207 206 201 193 187 185 184 181 179 179 178 180
20 31 11 325 323 331 317 342 60 46 27 1 6 14 15 14 10 7 6 8 7 19 11 326 266 254 248 251 244 248 239 230 223 219 219 216 213 211 210 206 200 195 190 189 186 184 182 182 184
186 353 335 334 333 45 67 40 79 25 8 13 20 24 21 15 9 4 1 360 358 2 6 5 355 266 248 241 251 254 243 243 237 225 221 219 217 216 213 211 206 202 196 193 191 188 186 187 188
335 327 320 23 41 64 76 39 53 0 4 20 29 26 23 19 12 3 0 355 352 350 349 349 349 356 305 251 243 250 259 249 241 234 228 224 220 219 217 215 211 209 203 198 195 192 189 191 192
310 329 10 23 2 8 186 38 29 1 10 23 25 24 19 19 16 13 6 359 352 348 344 340 334 334 330 322 253 241 250 259 260 243 236 229 225 222 221 220 217 214 208 202 198 196 193 194 194
13 39 360 319 11 14 49 59 16 11 16 19 17 17 15 17 17 15 12 7 359 349 343 339 335 326 319 311 305 262 238 248 257 256 249 233 231 227 223 223 223 218 213 206 201 198 196 196 198
23 43 339 328 12 45 51 52 0 15 19 20 14 12 13 14 16 15 13 9 5 359 350 342 335 331 321 304 294 279 271 242 247 252 252 246 235 231 226 227 226 222 217 208 204 200 199 197 201
325 343 302 301 54 79 82 91 12 21 26 22 15 12 9 9 8 11 12 10 7 2 357 352 346 335 327 313 294 281 270 268 243 252 249 251 243 235 231 227 228 225 221 211 206 204 201 202 201
111 19 264 270 125 83 96 96 27 25 29 20 9 6 7 4 9 14 14 12 9 5 360 357 352 345 335 327 309 283 272 263 250 237 246 248 249 239 234 229 227 226 224 217 210 206 203 202 201
45 157 294 305 331 110 104 71 30 23 24 21 9 5 3 2 7 10 12 13 13 7 4 0 356 349 345 335 320 302 288 269 259 250 240 236 238 249 236 231 224 225 226 220 211 208 203 203 200
301 167 265 253 305 72 135 96 14 1 14 10 7 3 4 6 2 4 6 8 8 9 8 4 2 355 348 341 325 311 282 275 266 250 268 249 249 234 240 227 222 223 225 223 214 211 207 202 201
287 275 294 277 227 188 284 228 12 335 335 7 356 358 358 6 9 10 8 5 5 5 9 7 6 3 356 345 339 324 317 293 269 269 257 262 252 272 311 233 223 218 225 224 220 213 212 207 202
262 314 292 262 126 102 359 68 273 321 334 351 346 350 356 6 9 10 8 10 7 2 7 8 7 6 4 359 348 337 317 304 280 268 270 265 259 260 272 293 228 220 221 222 224 215 214 211 208
317 19 27 54 88 48 302 119 296 319 316 327 339 346 354 6 11 11 14 13 11 6 3 7 10 7 6 5 359 352 330 316 302 281 278 278 270 264 278 261 300 222 221 218 226 220 216 214 212
3 27 359 12 24 217 281 37 239 281 316 322 323 332 354 9 10 12 14 13 12 12 7 2 11 10 8 5 11 4 355 332 312 295 283 271 267 265 264 265 257 229 216 217 226 223 218 216 213
334 69 137 183 42 290 10 271 266 215 346 341 341 349 1 10 10 11 14 13 13 14 14 9 7 10 12 8 9 14 9 0 332 312 299 286 262 245 239 252 244 275 254 215 220 226 222 219 217
334 38 255 100 70 53 263 299 315 295 315 334 342 356 360 6 8 9 10 13 14 16 16 16 15 11 16 15 8 9 11 14 9 343 320 305 284 253 245 245 241 266 251 233 218 218 219 219 219
90 278 41 4 25 326 298 287 241 323 319 322 336 349 358 3 6 8 9 10 13 15 16 15 15 21 20 21 16 10 8 16 17 16 11 360 304 267 242 238 249 262 263 271 206 218 221 215 218
351 14 17 102 91 166 301 278 220 250 274 292 323 345 355 360 5 6 5 8 10 13 13 13 12 12 19 22 19 18 10 10 18 23 27 31 50 82 178 230 225 244 247 241 242 269 212 216 214
121 152 103 106 298 224 153 281 233 253 294 317 323 351 353 353 360 8 4 5 8 10 11 10 9 8 12 18 19 18 18 13 13 20 31 36 40 66 96 113 214 281 234 229 229 243 227 218 211
Height
1522 1520 1518 1517 1527 1529 1538 1529 1517 1519 1514 1509 1502 1500 1497 1495 1498 1510 1493 1493 1493 1495 1497 1498 1499 1501 1503 1506 1508 1507 1509 1508 1509 1511 1513 1517 1519 1521 1523 1526 1528 1530 1531 1533 1537 1539 1541 1542 1544
1523 1521 1520 1519 1537 1544 1538 1524 1524 1522 1517 1510 1503 1500 1497 1496 1494 1493 1493 1493 1494 1495 1497 1499 1500 1501 1504 1506 1508 1509 1509 1512 1510 1512 1514 1516 1519 1522 1524 1526 1528 1530 1532 1533 1535 1538 1542 1543 1545
1525 1523 1522 1527 1541 1543 1535 1522 1522 1521 1517 1513 1505 1500 1499 1500 1497 1495 1495 1496 1496 1497 1497 1499 1500 1502 1504 1505 1506 1508 1509 1512 1513 1511 1514 1516 1519 1522 1522 1526 1529 1531 1533 1535 1537 1537 1541 1544 1545
1525 1526 1527 1537 1537 1528 1523 1524 1524 1519 1516 1515 1510 1504 1504 1501 1500 1498 1496 1496 1496 1497 1497 1497 1499 1500 1502 1504 1507 1509 1510 1511 1514 1513 1514 1516 1519 1522 1523 1525 1529 1530 1533 1535 1538 1539 1540 1544 1545
1526 1527 1538 1540 1536 1524 1519 1522 1524 1524 1521 1516 1513 1510 1504 1504 1501 1500 1498 1496 1496 1496 1495 1496 1497 1498 1500 1503 1505 1508 1510 1510 1515 1515 1514 1516 1518 1520 1523 1525 1529 1531 1533 1535 1537 1540 1541 1545 1547
1527 1530 1545 1548 1536 1523 1521 1521 1522 1524 1523 1520 1517 1513 1510 1509 1505 1504 1502 1500 1498 1498 1497 1496 1497 1499 1500 1500 1502 1506 1509 1510 1513 1517 1516 1518 1519 1521 1523 1525 1527 1531 1532 1534 1537 1541 1543 1545 1548
1531 1537 1544 1542 1538 1528 1524 1524 1524 1522 1522 1523 1520 1514 1514 1509 1510 1509 1505 1503 1501 1500 1499 1497 1497 1497 1499 1501 1501 1503 1507 1510 1512 1516 1517 1517 1520 1522 1524 1525 1527 1530 1532 1534 1537 1541 1544 1546 1550
1532 1536 1540 1538 1538 1535 1527 1526 1527 1527 1525 1523 1521 1520 1520 1515 1507 1505 1506 1507 1503 1502 1502 1500 1498 1497 1497 1500 1501 1502 1505 1508 1510 1513 1517 1518 1520 1522 1525 1526 1528 1530 1533 1534 1536 1541 1545 1547 1551
1532 1542 1545 1539 1535 1532 1529 1531 1528 1527 1527 1524 1523 1524 1526 1517 1510 1506 1504 1503 1502 1503 1503 1503 1501 1499 1497 1497 1500 1502 1505 1507 1509 1510 1516 1518 1520 1521 1523 1525 1528 1529 1533 1533 1537 1540 1545 1548 1551
1532 1541 1538 1532 1533 1536 1535 1535 1529 1526 1529 1531 1526 1522 1517 1512 1506 1504 1503 1503 1502 1502 1502 1500 1503 1501 1498 1497 1497 1500 1502 1504 1507 1509 1510 1515 1518 1520 1522 1525 1528 1530 1531 1534 1537 1539 1544 1548 1550
1533 1537 1535 1532 1533 1534 1533 1534 1534 1529 1539 1546 1542 1530 1519 1513 1507 1507 1507 1507 1504 1502 1500 1497 1497 1496 1500 1498 1495 1496 1497 1500 1502 1505 1508 1510 1514 1517 1520 1523 1525 1528 1531 1532 1535 1538 1541 1546 1549
1537 1535 1536 1536 1534 1533 1532 1532 1544 1547 1556 1551 1545 1534 1523 1514 1512 1507 1504 1504 1501 1499 1496 1492 1490 1490 1492 1499 1498 1494 1494 1495 1497 1499 1502 1505 1509 1512 1516 1518 1521 1524 1527 1530 1532 1536 1539 1544 1548
1536 1538 1536 1534 1530 1533 1533 1541 1545 1550 1552 1548 1541 1528 1521 1518 1514 1512 1508 1503 1497 1493 1492 1490 1489 1488 1486 1489 1496 1495 1492 1490 1492 1494 1496 1498 1502 1506 1511 1514 1517 1520 1524 1527 1531 1534 1538 1542 1545
1538 1537 1535 1535 1532 1532 1538 1547 1543 1555 1551 1544 1534 1529 1526 1523 1516 1511 1504 1498 1496 1491 1490 1490 1489 1487 1485 1483 1485 1489 1493 1492 1487 1489 1490 1493 1496 1499 1505 1509 1512 1515 1519 1524 1528 1531 1535 1540 1543
1537 1538 1535 1535 1534 1533 1533 1552 1562 1560 1552 1543 1538 1535 1530 1525 1521 1515 1510 1503 1498 1492 1488 1487 1485 1483 1482 1479 1478 1481 1483 1488 1487 1486 1482 1486 1491 1494 1498 1502 1506 1510 1515 1520 1524 1529 1534 1537 1542
1538 1541 1547 1537 1535 1533 1530 1567 1565 1560 1553 1546 1540 1537 1534 1530 1525 1519 1514 1507 1500 1493 1486 1483 1480 1479 1476 1474 1472 1472 1475 1478 1480 1482 1482 1478 1483 1489 1494 1496 1499 1504 1509 1515 1521 1524 1529 1534 1537
1547 1552 1549 1545 1538 1538 1539 1563 1564 1561 1556 1551 1544 1539 1535 1529 1525 1520 1513 1506 1501 1494 1486 1480 1476 1473 1473 1470 1468 1467 1468 1469 1472 1474 1475 1477 1476 1478 1487 1490 1492 1496 1502 1509 1514 1519 1524 1529 1533
1552 1552 1551 1550 1548 1552 1558 1567 1565 1561 1557 1552 1547 1541 1535 1532 1527 1520 1514 1507 1500 1494 1488 1481 1475 1471 1467 1466 1463 1462 1461 1461 1464 1465 1466 1468 1471 1471 1474 1480 1484 1487 1493 1501 1507 1513 1518 1524 1530
1548 1550 1551 1547 1547 1556 1563 1566 1565 1561 1555 1551 1549 1544 1538 1534 1528 1521 1515 1509 1498 1492 1484 1478 1472 1467 1461 1457 1456 1454 1452 1453 1453 1457 1459 1460 1462 1465 1463 1467 1473 1477 1481 1488 1497 1503 1511 1517 1525
1549 1550 1551 1547 1543 1553 1561 1565 1563 1559 1556 1554 1554 1548 1540 1534 1526 1517 1512 1505 1497 1490 1483 1475 1467 1462 1458 1454 1451 1450 1447 1445 1446 1448 1450 1452 1452 1455 1459 1462 1464 1469 1473 1478 1488 1495 1501 1509 1514
1548 1550 1551 1551 1544 1547 1555 1562 1564 1560 1555 1554 1553 1549 1542 1536 1528 1520 1510 1503 1498 1491 1483 1476 1469 1462 1456 1451 1445 1441 1441 1439 1437 1439 1441 1442 1438 1442 1453 1458 1460 1461 1466 1468 1476 1483 1489 1496 1506
1552 1544 1544 1543 1546 1557 1551 1568 1567 1560 1555 1555 1553 1549 1543 1537 1530 1522 1513 1504 1499 1493 1486 1480 1472 1464 1456 1449 1443 1440 1436 1431 1428 1426 1429 1431 1425 1402 1425 1447 1452 1456 1458 1461 1467 1473 1479 1487 1492
1549 1543 1539 1537 1546 1554 1557 1578 1573 1562 1557 1557 1555 1550 1545 1539 1533 1524 1518 1510 1503 1496 1487 1480 1473 1464 1456 1449 1442 1436 1431 1427 1420 1418 1421 1427 1428 1426 1432 1420 1442 1444 1450 1453 1457 1465 1470 1477 1483
1546 1542 1544 1545 1553 1579 1562 1571 1584 1571 1564 1558 1555 1551 1547 1542 1535 1529 1522 1515 1506 1499 1490 1482 1473 1466 1459 1450 1441 1434 1426 1419 1412 1409 1411 1418 1421 1417 1407 1414 1406 1429 1436 1443 1448 1454 1461 1466 1475
1551 1553 1595 1583 1586 1595 1558 1564 1576 1565 1563 1561 1557 1553 1548 1542 1537 1530 1521 1515 1509 1500 1490 1484 1475 1467 1460 1452 1440 1432 1424 1415 1406 1400 1400 1407 1411 1411 1408 1413 1418 1397 1422 1430 1438 1444 1451 1457 1465
1562 1565 1598 1606 1597 1573 1563 1587 1575 1563 1562 1561 1556 1550 1545 1540 1535 1530 1524 1518 1511 1502 1494 1487 1478 1469 1460 1452 1442 1432 1424 1414 1403 1395 1393 1396 1400 1407 1408 1401 1409 1402 1406 1416 1423 1431 1440 1449 1456
1566 1575 1567 1586 1573 1598 1592 1583 1567 1563 1562 1558 1553 1549 1544 1539 1536 1531 1526 1520 1514 1506 1499 1490 1481 1472 1462 1453 1443 1434 1423 1413 1402 1395 1389 1385 1389 1397 1398 1395 1393 1390 1402 1392 1413 1416 1428 1436 1446
1572 1572 1583 1584 1591 1615 1594 1570 1588 1570 1565 1557 1551 1548 1545 1542 1537 1532 1528 1522 1515 1508 1500 1492 1485 1476 1466 1455 1447 1439 1429 1417 1408 1399 1391 1386 1382 1384 1381 1381 1380 1387 1402 1384 1393 1410 1417 1425 1434
1582 1586 1586 1590 1592 1608 1626 1596 1576 1571 1564 1560 1555 1552 1548 1543 1539 1534 1529 1523 1516 1509 1501 1494 1485 1477 1468 1459 1451 1443 1436 1426 1413 1401 1390 1384 1381 1379 1371 1385 1382 1381 1390 1393 1403 1399 1405 1412 1422
1576 1593 1603 1608 1603 1617 1608 1585 1564 1563 1560 1558 1554 1551 1548 1544 1540 1535 1529 1523 1517 1510 1503 1496 1488 1481 1473 1464 1456 1449 1441 1432 1416 1405 1396 1390 1382 1380 1384 1374 1367 1365 1371 1393 1388 1402 1406 1400 1410